CZ-6A R/B, 63605

Orbit data source: Space-Track

CZ-6A R/B, 63605 is space debris in SSO originally from a launch on Fri, 18 Apr 2025 UTC launched from the Taiyaun Space Center, China (TSC). Debris objects in space refer to the collection of defunct objects orbiting the Earth. Examples of debris include non-operational satellites, rocket bodies, and fragments generated from explosions, collisions, or faulty payload assembly.

Loading next visibility...
Identifier
63605, 2025-078G
Orbit
SSO
Country
Flag of CNCN / PRC
Related business
Manufacturer
SAST
Mission
Spacecraft
Bus & Motor
CZ-6A STAGE 2, YF-115
Mass
~6,000 kg wet, ~6,000 kg dry
Launch date (UTC)
2025-04-18 (1 year ago)
Launch vehicle
Unknown
Launch site
Taiyaun Space Center, China (TSC)
Object type
Payload
Rocket body
Debris
Shape & HBR
Unknown shape, 4.4 m
Radar Cross Section
Large (>1 m²)

Expand to show TLE details & history
Last TLE update: 13 hours ago

TLE from 13 hours ago
0 CZ-6A R/B
1 63605U 25078G   26171.32325443  .00000061  00000-0  77957-4 0  9991
2 63605  99.6719 206.0592 0106906  44.3315 316.6344 13.94805046 59550
Epoch: 2026-06-20T07:45Z
TLE epoch observation values (Epoch: 2026-06-20T07:45:29.182Z)
Latitude
-0.00003°
Longitude
-178.85191°
Altitude
858.418 km
Speed
7.452 km/s
True Right ascension
13h 44m 14s
True Declination
0° 00' 00"
Sunlit
Object was in daylight at epoch
Visualization orbit readout
Latitude
Unknown
Longitude
Unknown
Altitude
Unknown
Speed
Unknown
Apparent Right ascension
Unknown
Apparent Declination
Unknown
Sunlit
N/A
Visualization observer readout
Local Sidereal Time
07:22:53
Azimuth
Unknown
Elevation
Unknown
Doppler factor
Unknown
Orbital elements
Apogee altitude
986.985 km
Perigee altitude
831.175 km
Semi-major axis
7,287.217 km
Eccentricity
0.01069
Inclination
99.6719°
RAAN
206.0592°
Arg. of periapsis
44.3315°
True anomaly
315.785°
Mean anomaly
316.6344°
Eccentric anomaly
316.21053°
Mean motion
3.489 °/min
Orbital period
103.18 mins
BSTAR
0.000077957
Loading maneuver chart data...
Computing Atmospheric mass density...
Loading historical data...
Loading historical data...
Loading historical data...
Loading historical data...
Loading historical data...
Loading historical data...
Loading historical data...

Documentation

Showing up to 5 results
|